User: anonymous   Login
Location: Bocchiglicro
(39.4167°N, 16.7500°E)
Time: 19:15:03
(UTC+00:00)
Language:

ZHEDA PIXING 1C - Orbit

View from above orbital plane
View from above orbital plane
View from above satellite
View from above satellite

Ground track
Ground track

The orbit data is extracted from the following two-line orbital elements,

1 37167U 10047C   20331.42983920  .00000266  00000-0  40807-4 0  9999
2 37167  97.7221 312.2324 0024766  86.5075 273.8982 14.80858333549726
Epoch (UTC): 26 November 2020 10:18:58
Eccentricity: 0.0024766
inclination: 97.7221°
perigee height: 609 km
apogee height: 644 km
right ascension of ascending node: 312.2324°
argument of perigee: 86.5075°
revolutions per day: 14.80858333
mean anomaly at epoch: 273.8982°
orbit number at epoch: 54972

The dashed part of the orbit path shows where the satellite is in the earth's shadow,  

DLR